sat.trackr.live / text

‹ back to catalog

STARLINK-31488

NORAD 59009 · 2024-036M

PAYLOAD ACTIVE UNKNOWN

§ Identity

Operator
Country
US
Launch date
2024-02-23
Launch site
AFWTR
Launch vehicle
Mass (kg)
RCS (m²)

Purposes: comms

External: N2YO · Heavens-Above · Gunter

§ Orbital elements

Epoch: 2026-05-25T02:08:56.465088Z

Period
94.11 min
Inclination
53.1605°
Eccentricity
0.0001407
Mean motion
15.30182615 rev/d
Perigee alt
474.3 km
Apogee alt
476.2 km
Semi-major
6,853.4 km
B*
-3.1618e-5
RAAN
83.0274°
Arg perigee
77.5631°
Mean anomaly
282.5527°
Rev number
12,702

§ Raw data

STARLINK-314881 59009U 24036M   26145.08954242 -.00001295  00000+0 -31618-4 0  99912 59009  53.1605  83.0274 0001407  77.5631 282.5527 15.30182615127025

JSON: /api/v1/satellites/59009 · /tle

For live sub-satellite position, see the globe view (requires WebGL).

§ Visibility from observer

Set your observer location to see the next 7 days of passes ≥ 10°. The values pass through the URL so the page stays shareable.

No JS? Fill the form by hand. The geolocation button needs JavaScript.